Theta_e
339 340 342 344 347 348 349 349 349 349 347 344 342 342 342 343 343 344 345 345 344 345 345 344 344 345 344 345 347 349 348 347 345 343 343 344 344 344 344 346 347 347
340 340 340 343 345 347 348 349 349 349 348 345 342 343 344 344 344 344 344 345 345 344 345 344 345 345 344 345 347 348 348 348 347 343 342 343 344 344 344 346 347 345
339 340 340 341 344 346 347 348 349 349 349 347 345 347 348 346 344 344 344 345 345 345 345 344 344 345 345 346 347 348 348 349 348 344 342 343 344 344 345 345 346 345
338 339 340 340 342 345 347 348 348 349 349 349 348 349 350 348 345 344 345 345 346 345 344 344 344 344 345 346 346 346 347 348 348 345 343 344 343 344 345 345 347 347
337 338 339 340 340 343 347 348 348 349 349 349 350 350 350 349 347 344 344 346 346 345 344 344 344 344 344 344 344 345 345 346 346 345 344 345 344 344 344 345 346 347
338 337 338 339 340 342 345 347 348 348 349 349 349 349 349 350 349 347 345 345 345 345 344 344 344 344 344 343 343 344 344 344 344 344 344 344 344 344 345 344 344 345
339 337 337 339 340 341 343 346 348 348 348 348 349 349 349 349 349 348 346 346 346 345 345 344 343 345 345 344 343 343 343 343 343 343 343 343 343 344 344 344 344 344
339 338 336 338 340 342 342 345 347 347 347 348 348 347 348 347 347 346 345 345 346 346 347 346 344 346 347 347 345 344 343 342 342 342 342 342 342 342 343 343 343 344
339 338 337 337 339 340 341 343 345 346 347 347 347 346 346 346 345 344 343 343 343 344 347 348 347 348 349 350 349 347 345 343 342 342 342 342 341 341 341 342 342 342
340 339 338 337 338 338 339 341 343 345 345 345 345 345 345 344 343 342 341 340 340 340 343 345 347 348 349 349 349 347 346 344 343 342 342 341 341 340 339 339 339 340
343 341 340 338 338 338 339 339 341 344 344 343 343 343 343 342 341 340 339 338 338 338 339 341 344 346 347 347 347 347 346 345 344 343 341 340 340 339 337 337 337 337
346 345 343 340 338 338 338 339 340 342 343 342 341 341 341 340 340 339 339 339 339 339 339 339 341 344 345 346 347 346 346 345 343 342 341 339 339 338 337 337 337 337
347 347 346 345 341 338 338 338 339 341 342 343 342 341 340 339 338 338 338 339 339 339 339 339 340 341 342 343 344 345 345 344 343 342 341 340 339 338 337 337 337 337
349 348 347 347 346 341 338 338 339 340 341 343 343 341 340 339 338 338 338 338 339 339 339 339 339 339 339 340 342 343 345 345 345 344 343 342 341 340 339 338 337 337
347 348 348 348 347 345 341 338 338 338 338 339 340 340 340 339 338 338 337 337 337 338 339 341 341 340 338 338 340 343 345 346 345 345 345 344 344 343 343 342 341 341
346 347 348 348 348 348 345 340 338 338 337 337 337 337 338 337 337 336 336 336 336 337 339 341 342 341 340 340 342 343 344 345 345 344 345 345 345 345 344 344 343 343
347 348 348 348 348 348 347 342 339 339 340 340 338 337 337 337 336 336 336 336 336 336 338 341 341 341 341 342 343 344 345 345 345 344 344 343 344 344 344 344 344 344
347 349 349 349 349 348 348 345 340 338 340 343 344 342 340 339 338 337 337 339 339 339 339 340 340 339 339 343 344 345 346 346 345 345 344 343 342 342 343 343 343 344
348 350 350 350 349 349 349 348 345 341 340 343 347 347 344 341 340 339 340 343 345 346 345 344 343 340 339 342 345 346 347 347 346 346 345 344 344 342 342 342 342 343
349 350 350 350 350 350 349 349 349 347 344 344 347 349 347 344 343 344 344 345 347 349 350 351 350 348 346 347 349 349 349 349 348 347 345 345 345 344 343 342 342 342
350 350 350 350 350 350 350 349 350 348 345 343 346 348 349 348 348 348 348 348 349 349 350 352 352 352 352 352 352 351 351 351 350 348 346 345 345 345 345 344 344 344
348 349 349 350 349 350 350 350 350 349 345 344 346 348 349 349 349 349 349 349 350 349 349 350 350 351 352 353 352 352 351 351 350 349 347 346 345 345 345 346 346 345
344 346 347 348 348 348 349 349 351 351 349 348 349 349 350 350 350 349 349 348 348 349 349 349 349 350 350 351 352 351 351 351 350 350 348 346 345 345 346 347 348 347
340 341 342 343 343 344 346 346 347 349 350 350 350 351 351 351 351 351 350 350 350 350 351 351 351 351 350 350 351 351 351 351 350 349 348 346 345 346 346 347 348 349
334 334 335 335 336 338 341 343 345 346 347 348 348 349 350 350 351 352 351 351 351 351 351 352 352 351 350 350 351 351 351 351 350 349 348 348 348 348 348 348 349 349
326 325 324 322 324 328 330 333 336 338 339 341 343 344 346 347 348 348 349 349 349 349 350 351 351 351 350 350 351 351 351 351 351 351 351 351 350 350 350 350 350 350
Wind_Speed
18 18 18 16 14 13 12 11 10 9 9 9 9 8 8 8 8 8 8 7 7 6 6 6 5 5 5 4 4 4 4 4 4 4 4 4 4 4 4 4 4 4
18 18 17 16 15 14 13 12 11 9 8 9 8 7 7 8 8 9 8 8 7 7 7 7 6 6 6 5 4 4 5 4 4 4 3 3 4 4 4 4 5 5
18 18 17 17 16 15 13 13 12 10 9 9 9 8 7 8 8 9 8 8 8 7 8 7 7 6 6 5 5 5 5 5 5 5 4 4 4 4 4 4 5 5
19 18 18 18 17 15 14 14 13 12 11 10 10 9 8 8 9 9 9 9 9 8 8 8 7 7 6 6 6 5 5 6 6 6 5 4 4 4 4 4 4 5
20 19 19 18 18 17 16 15 14 13 12 11 11 11 9 9 9 9 9 10 9 9 9 9 8 7 7 6 6 6 6 6 7 7 6 6 5 5 5 5 4 5
20 20 20 19 18 18 17 17 16 14 12 12 12 12 10 9 9 9 9 9 9 9 9 9 9 7 7 7 7 7 6 6 7 7 7 7 6 7 6 6 5 5
21 21 21 20 20 19 18 18 17 15 13 13 13 12 11 10 10 9 9 9 10 10 10 10 10 9 8 8 7 7 7 7 8 8 7 7 7 7 7 7 7 7
20 21 21 21 21 21 19 18 17 16 14 14 13 13 12 11 10 10 10 10 10 11 11 11 11 10 9 8 8 7 7 8 8 8 8 8 8 8 8 8 9 8
20 20 21 21 21 22 21 19 18 17 15 15 14 13 13 12 11 11 11 11 11 12 12 12 12 11 10 9 8 8 8 8 8 8 8 8 8 8 9 9 10 9
20 20 20 21 21 22 21 20 19 17 16 15 14 14 14 13 13 12 12 12 12 13 13 13 13 12 11 10 9 9 9 8 8 8 8 8 9 9 9 10 10 10
19 19 19 20 21 22 22 21 20 19 18 16 15 14 13 13 13 13 13 13 13 13 13 12 12 12 11 10 10 9 8 8 8 8 8 8 9 9 9 10 11 11
19 18 18 19 20 22 23 23 22 21 19 18 16 15 14 14 14 14 13 13 13 13 13 13 12 12 11 11 10 10 9 9 9 9 9 9 9 9 9 10 10 11
20 20 19 18 19 20 22 23 23 22 21 20 19 17 16 16 15 15 15 15 15 14 14 14 13 14 14 13 12 11 11 11 10 10 10 9 9 8 8 9 10 11
20 21 21 20 19 19 20 22 22 22 22 22 21 20 19 18 18 17 17 17 17 16 16 16 15 15 15 15 14 13 13 13 12 12 11 10 9 9 8 8 9 10
22 22 21 21 19 19 20 21 22 22 22 23 23 22 21 20 20 19 19 19 19 19 18 17 17 17 17 16 15 15 15 15 14 14 13 13 12 11 10 9 9 10
25 23 22 21 20 19 20 21 21 22 22 23 23 23 23 22 21 21 21 20 20 20 19 19 19 19 18 17 16 16 16 16 16 16 15 15 15 14 13 12 11 11
25 24 23 22 21 20 20 22 23 22 22 22 22 23 23 23 22 22 22 21 21 21 21 20 20 20 18 17 16 16 16 16 17 17 17 17 17 16 15 14 13 12
25 24 23 22 22 21 21 22 24 24 22 21 20 22 23 23 23 23 22 21 21 21 21 21 21 21 19 17 17 16 15 16 16 17 17 18 18 18 17 15 14 14
25 25 24 22 23 23 22 22 23 23 23 22 21 21 22 23 23 23 22 21 20 19 19 20 21 21 19 18 17 17 16 16 17 17 17 17 18 18 18 17 16 15
24 25 25 24 23 24 24 23 23 23 24 24 22 22 23 23 23 23 23 22 21 20 19 18 18 20 19 18 19 18 18 19 19 19 18 18 17 18 18 19 18 17
20 22 22 21 20 22 24 24 24 25 25 24 22 22 23 24 24 24 24 24 22 22 22 19 18 19 21 21 21 21 21 21 21 20 20 19 18 18 18 19 19 19
13 15 16 15 16 18 20 22 23 24 24 23 23 24 24 25 25 25 24 23 22 23 24 22 21 22 23 23 24 24 23 23 23 22 21 20 19 19 19 19 20 20
8 9 11 13 14 16 17 19 20 22 23 22 22 22 22 23 23 22 21 20 19 20 20 20 19 21 23 23 24 24 24 24 23 22 22 22 20 20 19 18 19 19
7 6 6 8 9 11 12 13 15 17 18 18 18 18 18 18 16 15 15 14 13 13 14 14 15 18 20 22 24 24 23 23 23 23 22 22 21 21 20 19 19 19
6 4 2 1 2 5 6 7 9 12 13 15 15 15 15 15 15 14 12 10 10 10 11 12 13 15 18 20 21 21 21 21 22 22 21 21 21 21 21 21 21 21
6 5 5 5 5 4 3 3 5 7 9 10 11 11 13 13 14 15 14 13 13 12 12 13 14 15 17 19 19 18 18 19 20 21 21 21 21 22 21 20 21 23
Wind_Direction
213 213 212 209 206 208 210 209 211 216 221 223 220 217 216 212 211 213 211 208 206 209 218 222 218 219 224 225 231 241 253 261 259 257 255 248 243 237 237 236 235 235
216 215 215 214 213 212 211 210 210 213 220 223 216 210 213 214 214 215 215 214 213 214 219 224 222 221 227 229 234 244 248 250 251 250 248 245 240 237 239 239 240 244
218 219 219 219 218 215 213 211 210 211 217 218 213 211 215 217 216 217 216 215 218 222 222 223 222 221 228 234 235 241 242 242 244 240 232 235 234 232 238 238 240 250
219 221 222 222 221 219 216 214 213 213 215 217 217 218 219 216 215 216 217 218 221 225 225 224 222 221 229 235 236 239 240 240 241 237 230 231 231 229 235 237 240 250
222 222 223 224 222 221 220 219 216 215 217 219 220 221 222 218 214 215 219 221 222 225 226 224 221 222 228 232 233 236 239 241 241 239 237 235 233 235 238 239 239 249
225 225 225 225 223 221 223 224 221 218 219 222 222 224 226 223 217 214 218 222 224 226 226 223 220 220 227 231 234 237 238 240 241 242 243 243 242 243 245 246 248 253
227 227 227 226 224 224 226 227 225 223 223 224 225 224 225 226 223 217 216 221 226 229 229 225 219 220 227 232 235 237 239 241 242 243 246 249 249 249 250 253 254 256
228 228 229 228 226 226 227 227 228 227 227 228 228 225 224 225 225 222 222 225 228 232 232 228 224 223 228 232 235 237 238 241 242 242 245 248 250 251 252 255 256 257
230 228 229 230 230 229 228 228 229 229 229 231 231 229 226 226 226 229 231 232 233 235 235 233 231 230 231 233 237 238 236 239 242 242 244 247 251 253 254 254 256 258
234 231 229 229 231 233 231 230 230 230 230 231 233 232 229 228 229 232 234 235 235 237 237 238 237 236 237 239 242 243 242 243 245 247 249 252 255 257 258 258 258 259
238 236 234 232 232 234 234 233 232 232 232 232 234 234 232 230 231 232 235 236 236 237 237 238 238 239 241 243 245 248 248 248 248 251 255 258 261 262 263 263 263 263
243 241 240 237 236 236 237 236 235 234 234 234 236 236 236 235 235 234 236 238 239 240 238 237 237 239 241 241 243 245 245 245 247 249 252 254 258 261 263 265 267 269
247 246 244 243 241 239 239 239 238 237 237 237 239 240 241 242 242 241 240 240 241 241 240 240 238 238 238 236 236 237 237 239 242 246 247 248 249 252 256 261 265 268
248 245 242 241 241 240 240 241 241 241 241 241 242 243 245 246 248 248 247 244 241 239 239 239 238 238 238 235 232 232 235 239 241 242 244 245 244 245 248 251 255 260
247 243 240 240 240 240 239 239 241 242 242 243 243 244 245 247 249 250 250 247 244 241 238 236 237 238 239 237 235 236 240 245 246 245 245 247 246 245 245 244 245 250
250 244 239 237 237 237 236 236 237 241 243 244 244 244 245 246 248 249 247 246 246 244 242 239 239 240 240 239 239 241 246 250 252 250 249 250 251 250 250 249 250 253
251 248 241 235 234 235 235 233 232 234 238 243 246 246 246 246 247 246 244 245 246 246 245 245 245 246 246 244 242 244 248 253 257 256 254 253 252 252 253 254 257 261
246 248 244 238 235 236 237 235 233 232 233 237 242 246 247 246 245 243 241 241 244 246 247 248 250 251 250 248 246 246 249 255 260 261 260 258 256 255 255 257 260 265
242 245 246 242 238 238 238 237 235 234 234 236 239 243 245 245 244 243 241 240 242 245 248 250 252 251 248 247 248 249 252 258 261 262 263 262 260 260 260 261 262 265
237 240 243 242 238 237 237 236 234 233 232 234 237 241 242 242 242 244 244 243 242 243 246 250 255 256 253 252 254 255 258 262 263 263 264 263 262 261 260 260 261 263
226 230 236 238 236 235 235 233 230 229 230 232 237 241 240 239 241 242 244 246 247 249 249 248 254 260 262 262 261 261 262 263 263 264 264 263 262 261 258 255 255 256
195 210 219 224 226 228 231 230 226 225 227 233 238 241 240 238 239 240 241 243 247 251 252 254 258 261 263 264 264 264 263 264 264 264 265 264 263 261 259 256 254 255
149 179 199 205 205 209 215 218 218 219 222 227 234 239 240 238 238 241 244 245 247 250 254 259 260 259 261 263 263 263 262 261 262 263 264 264 263 263 263 263 262 261
127 148 188 202 196 198 205 205 207 213 217 221 225 230 234 235 234 236 240 243 245 249 254 256 255 257 262 262 259 258 257 257 257 258 259 260 261 261 262 264 265 265
95 105 138 188 183 195 204 202 205 211 214 217 220 220 221 224 225 226 228 228 228 235 243 245 245 248 250 250 248 248 249 250 252 253 255 255 256 257 259 260 262 263
61 61 60 48 52 75 99 161 197 203 205 210 213 214 218 222 223 225 230 232 233 237 245 250 250 244 238 239 241 242 244 247 250 251 252 253 255 256 257 259 260 262